sat.trackr.live / text

‹ back to catalog

BRO-14

NORAD 60551 · 2024-149CM

PAYLOAD ACTIVE UNKNOWN

§ Identity

Operator
Country
FR
Launch date
2024-08-16
Launch site
AFWTR
Launch vehicle
Mass (kg)
RCS (m²)

External: N2YO · Heavens-Above · Gunter

§ Orbital elements

Epoch: 2026-09-22T16:45:25.143552Z

Period
96.23 min
Inclination
97.6802°
Eccentricity
0.0008067
Mean motion
14.96350953 rev/d
Perigee alt
572.6 km
Apogee alt
583.8 km
Semi-major
6,956.3 km
B*
9.7068e-5
RAAN
339.6952°
Arg perigee
123.7581°
Mean anomaly
236.4411°
Rev number
11,457

§ Raw data

BRO-141 60551U 24149CM  26265.69820768  .00001042  00000+0  97068-4 0  99942 60551  97.6802 339.6952 0008067 123.7581 236.4411 14.96350953114570

JSON: /api/v1/satellites/60551 · /tle

For live sub-satellite position, see the globe view (requires WebGL).

§ Visibility from observer

Set your observer location to see the next 7 days of passes ≥ 10°. The values pass through the URL so the page stays shareable.

No JS? Fill the form by hand. The geolocation button needs JavaScript.

§ Radio — SatNOGS DB

ModeDescriptionDownlinkUplink
BPSK Mode S - Transmitter 2.261 GHz
FSK AX.100 Mode 5 Mode U - FSK9k6 - Transmitter 401.790 MHz
FSK AX.100 Mode 5 Mode U - FSK4k8 - TLM (inactive) 401.735 MHz
FSK AX.100 Mode 5 Mode U - FSK9k6 - TLM (inactive) 401.735 MHz

4 transmitters · refreshed weekly from db.satnogs.org